Location: La Sioule Rivi�re
(46.3664°N, 3.3197°E)
Time: 13:07:50
(UTC+00:00)

Cosmos 2263 Rocket - Pass Details

Date: 29 October 2020
Orbit: 822 x 850 km, 71.0° (Epoch: 23 November)

Event Time Altitude Azimuth Distance (km) Brightness Sun altitude
Rises 18:37:08 0° 337° (NNW) 3,421 5.7 -21.4°
Reaches altitude 10° 18:39:44 10° 344° (NNW) 2,484 4.8 -21.8°
Enters shadow 18:45:04 43° 53° (NE) 1,190 2.6 -22.8°
